Regional Weather Roundup
Issued by NWS Newport/Morehead, NC

Current Version | Previous Version | Graphics & Text | Print | Product List | Glossary Off
Versions: 1 2 3 4 5 6 7 8 9 10 11 12 13 14 15 16 17 18 19 20 21 22 23 24 25 26 27 28 29 30 31 32 33 34 35 36 37 38 39 40 41 42 43 44 45 46 47 48 49 50

000
ASUS42 KMHX 181925
RWRMHX
WEATHER ROUNDUP FOR EASTERN NORTH CAROLINA
NATIONAL WEATHER SERVICE NEWPORT/MOREHEAD CITY NC
200 PM EST THU JAN 18 2018

NOTE: "FAIR" INDICATES FEW OR NO CLOUDS BELOW 12,000 FEET
WITH NO SIGNIFICANT WEATHER AND/OR OBSTRUCTIONS TO VISIBILITY

NCZ015>017-031-032-045>047-102-103-182000-
NORTH COAST

CITY           SKY/WX    TMP DP  RH WIND       PRES   REMARKS
EDENTON        FAIR      38  18  45 W9        30.19S
ELIZABETH CITY FAIR      33  20  58 W10       30.16F
KITTY HAWK     FAIR      32  18  58 W9        30.14S
MANTEO         FAIR      32  18  56 NW13      30.17S

$$

NCZ045>047-081-094-103-104-182000-
CENTRAL COAST

CITY           SKY/WX    TMP DP  RH WIND       PRES   REMARKS
FRISCO         FAIR      34  20  56 NW15G21   30.18R

$$

NCZ095-097-098-100-101-182000-
SOUTHERN COAST

CITY           SKY/WX    TMP DP  RH WIND       PRES   REMARKS
BEAUFORT       FAIR      35  17  47 W10       30.23S
CEDAR ISLAND   NOT AVBL
JACKSONVILLE   FAIR      37  17  44 W13G21    30.24F
PINEY ISLAND   NOT AVBL
WILMINGTON     FAIR      37  14  38 W16G24    30.27F


$$

NCZ011>013-027>030-043-044-078>080-089-090>093-098-182000-
COASTAL PLAIN

CITY           SKY/WX    TMP DP  RH WIND       PRES   REMARKS
AHOSKIE        FAIR      33  20  57 CALM      30.18F
CLINTON        FAIR      35  19  52 W12       30.28S
ELIZABETHTOWN  NOT AVBL
GOLDSBORO      FAIR      36  17  45 W15       30.22F
GREENVILLE     FAIR      36  16  44 W6        30.22F
HAVELOCK       SUNNY     38  18  44 W12       30.23F
KENANSVILLE    FAIR      34  16  47 W9G18     30.26F
KINSTON        SUNNY     36  14  41 W10G17    30.25S
NEW BERN       FAIR      37  16  42 W12       30.23F
RICHLANDS      FAIR      37  16  42 VRB7      30.25F
ROCKY MOUNT    NOT AVBL
WASHINGTON     FAIR      38  14  37 CALM      30.21F
WHITEVILLE     FAIR      36  12  36 W9        30.28F

$$

AMZ130-135-150-152-154-156-158-170-250-252-270-ANZ085-086-088-633-658-670-182000-
MARINE OBSERVATIONS

STATION/POSITION TIME  TEMP    WIND        PRES    WAVE   SWELL
                       AIR SEA DIR/SP/G            HT/PER HT/PER
                 (UTC) (F)     (DEG/KT/KT) (MB)    (FT/S) (FT/S)
CHESAPEAKE LIGHT NOT AVBL
64 E VA BEACH    1850   35 56  310/ 23/ 29 1018.7    9/ 8
DUCK             1900   32 38  270/ 10/ 14 1020.4
2 E DUCK         NOT AVBL
OREGON INLET     1900   31 38  290/ 14/ 19 1020.9
13E OREGON INLT  NOT AVBL
HATTERAS CG      1900   32 40  300/ 18/ 22 1021.6
DIAMOND BUOY     1900   33     300/ 21/ 27 1022.0
CAPE LOOKOUT     1900          290/ 12/ 17 1023.7
BEAUFORT LAB     1900   35 44  300/  6/ 12 1023.6
30 SE NEW RVR IN 1808   35 58  330/ 16/ 21 1024.3
30 SE NEW RVR IN NOT AVBL
27 SE WRIGHTSVLE 1808   36 60  300/ 19/ 29 1024.7
5 SE WRIGHTSVLE  1908   36 46  300/ 14/ 19 1024.4
225 S CAPE HAT   1850   53 70  330/ 23/ 29 1020.1   14/10  10/10
41 SE CHARLESTON 1900   40 67  320/ 17/ 19 1025.9

$$




USA.gov is the U.S. government's official web portal to all federal, state and local government web resources and services.